Showing default

FORGESTAR-1, 64546

Orbit data source: Space-Track

FORGESTAR-1, 64546 is a payload satellite owned by Space Forge (UK) in SSO that was launched on Mon, 23 Jun 2025 UTC via an FALCON 9 launch vehicle from the Air Force Western Test Range (AFWTR). Payload-class satellites include a variety of spacecraft equipped with specific instruments for various scientific and technological missions. These include communications satellites like Starlink; space stations such as the ISS; scientific satellites like the Hubble; Earth observation satellites from companies like Planet Labs, Umbra, and HawkEye 360; GPS; miniature CubeSats for education and research; and military/defense satellites.

Loading next visibility...
Identifier
64546, 2025-135U
Orbit
SSO
Country
Flag of UKUK
Related business
Manufacturer
Space Forge
Mission
Operational Amateur Technology
Bus & Motor
FORGESTAR, Unknown motor
Mass
~30 kg wet, ~30 kg dry
Launch date (UTC)
2025-06-23 (2 months ago)
Launch vehicle
FALCON 9
Launch site
Air Force Western Test Range (AFWTR)
Object type
Payload
Rocket body
Debris
Shape & HBR
Box, 0.2 m
Radar Cross Section
0.035 m², Medium (>0.1 m² and < 1m²)

Expand to show TLE details & history
Last TLE update: 22 hours ago

TLE from 22 hours ago
0 FORGESTAR-1
1 64546U 25135U   25242.10168889  .00009537  00000-0  46540-3 0  9993
2 64546  97.4476 355.5631 0002362 102.4751 257.6748 15.18496524 10640
Epoch: 2025-08-30T02:26Z
TLE epoch observation values (Epoch: 2025-08-30T02:26:25.92Z)
Latitude
0.00005°
Longitude
-19.58572°
Altitude
513.819 km
Speed
7.607 km/s
True Right ascension
23h 42m 15s
True Declination
0° 00' 00"
Sunlit
Object was in full shadow at epoch
Visualization orbit readout
Latitude
Unknown
Longitude
Unknown
Altitude
Unknown
Speed
Unknown
Apparent Right ascension
Unknown
Apparent Declination
Unknown
Sunlit
N/A
Visualization observer readout
Local Sidereal Time
16:04:00
Azimuth
Unknown
Elevation
Unknown
Doppler factor
Unknown
Orbital elements
Apogee altitude
508.98 km
Perigee altitude
505.727 km
Semi-major axis
6,885.49 km
Eccentricity
0.00024
Inclination
97.4476°
RAAN
355.5631°
Arg. of periapsis
102.4751°
True anomaly
257.64836°
Mean anomaly
257.6748°
Eccentric anomaly
257.66158°
Mean motion
3.79875 °/min
Orbital period
94.77 mins
BSTAR
0.0004654
Loading maneuver chart data...
Computing Atmospheric mass density...
Loading historical data...
Loading historical data...
Loading historical data...
Loading historical data...
Loading historical data...
Loading historical data...
Loading historical data...

Documentation

Showing up to 5 results
|